Midland, MI

3:30 PM EDT on June 25, 2017 (GMT -0400)
Barstow

Weather History for KIKW - November, 2012

Change the Weather History Date:

Friday, November 23, 2012

  Actual Average (KMBS) Record (KMBS)
Temperature  
Mean Temperature 44 °F -  
Max Temperature 55 °F 41 °F 64 °F (1999)
Min Temperature 32 °F 29 °F 12 °F (2007)
Degree Days  
Heating Degree Days 22    
Moisture  
Dew Point 30 °F    
Average Humidity 68    
Maximum Humidity 77    
Minimum Humidity 57    
Precipitation  
Precipitation 0.00 in - - ()
Sea Level Pressure  
Sea Level Pressure 29.75 in    
Wind  
Wind Speed 14 mph (West)    
Max Wind Speed 24 mph    
Max Gust Speed 38 mph    
Visibility 10 miles    
Events Snow    
Averages and records for this station are not official NWS values.
T = Trace of Precipitation, MM = Missing Value Source: NWS Daily Summary

Daily Weather History Graph

Daily Weather History Graph

Search for Another Location

Airport or City:

Trip Planner

Search our weather history database for the weather conditions in past years. The results will help you decide how hot, cold, wet, or windy it might be!

Date:

Astronomy

Nov. 23, 2012 Rise Set
Actual Time 7:41 AM EST 5:05 PM EST
Civil Twilight 7:10 AM EST 5:36 PM EST
Nautical Twilight 6:34 AM EST 6:11 PM EST
Astronomical Twilight 6:00 AM EST 6:46 PM EST
Moon 2:25 PM EST (11/23) 2:52 AM EST (11/23)
Length of Visible Light 10h 26m
Length of Day
9h 23m
Waxing Gibbous, 79% of the Moon is Illuminated
Nov 23
Waxing Gibbous
Nov 28
Full
Dec 6
Last Quarter
Dec 13
New
Dec 20
First Quarter

Hourly Weather History & Observations

Time (EST) Temp. Windchill Dew Point Humidity Pressure Visibility Wind Dir Wind Speed Gust Speed Precip Events Conditions
12:14 AM 53.6 °F - 46.4 °F 77% 29.69 in 10.0 mi SSW 11.5 mph - N/A   Overcast
12:34 AM 53.6 °F - 46.2 °F 76% 29.67 in 10.0 mi SSW 11.5 mph 20.7 mph N/A   Overcast
12:54 AM 54.1 °F - 46.0 °F 74% 29.66 in 10.0 mi SSW 12.7 mph 17.3 mph N/A   Overcast
1:15 AM 54.1 °F - 46.0 °F 74% 29.65 in 10.0 mi SSW 15.0 mph 20.7 mph N/A   Overcast
1:34 AM 54.5 °F - 46.0 °F 73% 29.64 in 10.0 mi SSW 10.4 mph 18.4 mph N/A   Overcast
1:54 AM 54.1 °F - 46.2 °F 75% 29.63 in 10.0 mi SSW 10.4 mph - N/A   Overcast
2:14 AM 54.5 °F - 46.6 °F 75% 29.62 in 10.0 mi SSW 10.4 mph 17.3 mph N/A   Overcast
2:34 AM 54.5 °F - 46.6 °F 75% 29.62 in 10.0 mi SSW 8.1 mph - N/A   Overcast
2:54 AM 54.5 °F - 46.8 °F 75% 29.62 in 10.0 mi SSW 10.4 mph 18.4 mph N/A   Overcast
3:14 AM 54.5 °F - 47.3 °F 77% 29.61 in 10.0 mi SSW 10.4 mph 18.4 mph N/A   Overcast
3:34 AM 54.7 °F - 47.5 °F 77% 29.60 in 10.0 mi SSW 10.4 mph 17.3 mph N/A   Overcast
3:54 AM 55.4 °F - 47.3 °F 74% 29.59 in 10.0 mi SW 18.4 mph 23.0 mph N/A   Overcast
4:14 AM 54.9 °F - 46.2 °F 73% 29.59 in 10.0 mi WSW 17.3 mph 28.8 mph N/A   Overcast
4:34 AM 52.7 °F - 42.3 °F 68% 29.61 in 10.0 mi WSW 23.0 mph 35.7 mph N/A   Overcast
4:54 AM 49.1 °F - 39.2 °F 69% 29.63 in 10.0 mi West 17.3 mph 28.8 mph N/A   Overcast
5:14 AM 47.3 °F - 38.7 °F 72% 29.64 in 10.0 mi West 15.0 mph 25.3 mph N/A   Overcast
5:34 AM 46.4 °F 38.7 °F 38.3 °F 73% 29.64 in 10.0 mi SW 20.7 mph 25.3 mph N/A   Overcast
5:55 AM 45.0 °F 37.9 °F 35.6 °F 70% 29.65 in 10.0 mi WSW 16.1 mph 26.5 mph N/A   Overcast
6:14 AM 44.6 °F 39.2 °F 34.9 °F 69% 29.65 in 10.0 mi WSW 10.4 mph 27.6 mph N/A   Overcast
6:34 AM 43.9 °F 37.5 °F 34.7 °F 70% 29.66 in 10.0 mi WSW 12.7 mph 26.5 mph N/A   Overcast
6:54 AM 42.6 °F 34.6 °F 32.0 °F 66% 29.67 in 10.0 mi WSW 17.3 mph 33.4 mph N/A   Overcast
7:14 AM 41.9 °F 33.1 °F 32.0 °F 68% 29.67 in 10.0 mi West 19.6 mph 29.9 mph N/A   Overcast
7:35 AM 41.0 °F 30.9 °F 30.9 °F 67% 29.68 in 10.0 mi West 24.2 mph 38.0 mph N/A   Overcast
7:54 AM 40.3 °F 31.0 °F 29.8 °F 66% 29.70 in 10.0 mi West 19.6 mph 31.1 mph N/A   Overcast
8:14 AM 39.4 °F 30.7 °F 28.8 °F 66% 29.70 in 10.0 mi West 16.1 mph 27.6 mph N/A   Overcast
8:35 AM 38.8 °F 29.7 °F 28.8 °F 67% 29.70 in 10.0 mi West 17.3 mph 26.5 mph N/A   Overcast
8:54 AM 38.7 °F 31.4 °F 29.1 °F 69% 29.70 in 10.0 mi West 11.5 mph 20.7 mph N/A   Overcast
9:14 AM 38.7 °F 30.5 °F 29.1 °F 69% 29.70 in 10.0 mi West 13.8 mph 19.6 mph N/A   Overcast
9:35 AM 38.8 °F 32.1 °F 29.3 °F 69% 29.70 in 10.0 mi West 10.4 mph 16.1 mph N/A   Overcast
9:54 AM 38.8 °F 28.8 °F 28.0 °F 65% 29.69 in 10.0 mi WSW 20.7 mph 27.6 mph N/A   Overcast
10:14 AM 38.3 °F 29.7 °F 27.5 °F 65% 29.70 in 10.0 mi West 15.0 mph 29.9 mph N/A   Overcast
10:34 AM 37.6 °F 28.4 °F 27.5 °F 67% 29.71 in 10.0 mi West 16.1 mph 25.3 mph N/A   Overcast
10:54 AM 37.4 °F 28.5 °F 27.0 °F 66% 29.71 in 10.0 mi West 15.0 mph 25.3 mph N/A   Overcast
11:15 AM 36.7 °F 28.0 °F 26.2 °F 66% 29.72 in 10.0 mi WSW 13.8 mph 25.3 mph N/A   Overcast
11:34 AM 36.7 °F 27.2 °F 25.7 °F 64% 29.71 in 10.0 mi West 16.1 mph 27.6 mph N/A   Overcast
11:54 AM 35.8 °F 25.4 °F 24.8 °F 64% 29.72 in 10.0 mi West 18.4 mph 29.9 mph N/A   Overcast
12:15 PM 34.9 °F 25.7 °F 24.6 °F 66% 29.72 in 10.0 mi West 13.8 mph 25.3 mph N/A   Overcast
12:34 PM 34.3 °F 24.6 °F 24.8 °F 68% 29.73 in 10.0 mi West 15.0 mph 29.9 mph N/A Snow Light Snow
12:54 PM 34.7 °F 25.1 °F 25.3 °F 69% 29.73 in 10.0 mi West 15.0 mph 23.0 mph N/A   Overcast
1:15 PM 34.9 °F 24.9 °F 25.3 °F 68% 29.73 in 10.0 mi WSW 16.1 mph 25.3 mph N/A Snow Light Snow
1:34 PM 34.9 °F 23.9 °F 25.5 °F 69% 29.73 in 10.0 mi WSW 19.6 mph 26.5 mph N/A   Overcast
1:54 PM 34.0 °F 23.8 °F 27.1 °F 76% 29.73 in 3.0 mi West 16.1 mph 24.2 mph N/A Snow Light Snow
2:15 PM 34.9 °F 26.2 °F 26.2 °F 71% 29.73 in 10.0 mi West 12.7 mph 24.2 mph N/A   Overcast
2:34 PM 35.1 °F 25.5 °F 25.7 °F 69% 29.73 in 10.0 mi West 15.0 mph 27.6 mph N/A   Overcast
2:54 PM 35.6 °F 25.5 °F 26.6 °F 70% 29.74 in 10.0 mi West 17.3 mph 28.8 mph N/A   Overcast
3:15 PM 35.8 °F 26.5 °F 25.9 °F 67% 29.75 in 10.0 mi West 15.0 mph 33.4 mph N/A   Overcast
3:34 PM 35.8 °F 26.9 °F 25.5 °F 66% 29.76 in 10.0 mi West 13.8 mph 29.9 mph N/A   Overcast
3:54 PM 35.6 °F 24.8 °F 25.3 °F 66% 29.78 in 10.0 mi West 19.6 mph 32.2 mph N/A   Overcast
4:15 PM 34.9 °F 24.9 °F 25.7 °F 69% 29.79 in 10.0 mi West 16.1 mph 26.5 mph N/A   Overcast
4:34 PM 34.9 °F 24.9 °F 25.5 °F 69% 29.81 in 10.0 mi West 16.1 mph 25.3 mph N/A   Overcast
4:55 PM 33.8 °F 22.8 °F 26.4 °F 74% 29.82 in 10.0 mi West 18.4 mph 24.2 mph N/A   Overcast
5:15 PM 34.0 °F 23.4 °F 24.1 °F 67% 29.83 in 10.0 mi West 17.3 mph 27.6 mph N/A   Overcast
5:34 PM 34.2 °F 24.4 °F 24.1 °F 67% 29.84 in 10.0 mi West 15.0 mph 31.1 mph N/A   Overcast
5:55 PM 34.0 °F 24.6 °F 24.4 °F 68% 29.85 in 10.0 mi West 13.8 mph 23.0 mph N/A   Overcast
6:14 PM 34.2 °F 24.8 °F 23.9 °F 66% 29.86 in 10.0 mi West 13.8 mph 21.9 mph N/A   Overcast
6:34 PM 34.9 °F 24.9 °F 23.5 °F 63% 29.86 in 10.0 mi West 16.1 mph 21.9 mph N/A   Overcast
6:55 PM 34.9 °F 26.2 °F 21.9 °F 59% 29.87 in 10.0 mi WNW 12.7 mph 33.4 mph N/A   Overcast
7:14 PM 33.8 °F 24.8 °F 21.2 °F 60% 29.88 in 10.0 mi West 12.7 mph 28.8 mph N/A   Mostly Cloudy
7:34 PM 34.0 °F 23.0 °F 21.0 °F 59% 29.89 in 10.0 mi WNW 18.4 mph 26.5 mph N/A   Overcast
7:55 PM 34.3 °F 24.6 °F 20.7 °F 57% 29.90 in 10.0 mi WNW 15.0 mph 23.0 mph N/A   Overcast
8:14 PM 34.3 °F 23.9 °F 20.7 °F 57% 29.91 in 10.0 mi WNW 17.3 mph 32.2 mph N/A   Overcast
8:35 PM 34.0 °F 22.7 °F 20.3 °F 57% 29.92 in 10.0 mi WNW 19.6 mph 33.4 mph N/A   Overcast
8:55 PM 34.2 °F 24.8 °F 20.8 °F 58% 29.92 in 10.0 mi WNW 13.8 mph 32.2 mph N/A   Overcast
9:14 PM 34.0 °F 24.2 °F 21.2 °F 60% 29.92 in 10.0 mi WNW 15.0 mph 25.3 mph N/A   Overcast
9:35 PM 33.8 °F 24.8 °F 21.6 °F 61% 29.93 in 10.0 mi WNW 12.7 mph 25.3 mph N/A   Overcast
9:54 PM 33.8 °F 25.8 °F 21.9 °F 62% 29.94 in 10.0 mi West 10.4 mph 23.0 mph N/A   Overcast
10:14 PM 33.8 °F 23.5 °F 22.1 °F 62% 29.94 in 10.0 mi WNW 16.1 mph 25.3 mph N/A   Overcast
10:35 PM 33.4 °F 24.3 °F 21.9 °F 63% 29.94 in 10.0 mi West 12.7 mph 20.7 mph N/A   Overcast
10:54 PM 33.8 °F 24.3 °F 21.6 °F 61% 29.95 in 10.0 mi WNW 13.8 mph 23.0 mph N/A   Overcast
11:14 PM 33.8 °F 23.9 °F 21.2 °F 60% 29.95 in 10.0 mi WNW 15.0 mph 24.2 mph N/A   Overcast
11:35 PM 32.7 °F 23.0 °F 21.4 °F 63% 29.96 in 10.0 mi WNW 13.8 mph 24.2 mph N/A   Mostly Cloudy
11:54 PM 32.4 °F 23.5 °F 21.6 °F 64% 29.96 in 10.0 mi WNW 11.5 mph 23.0 mph N/A   Mostly Cloudy